Location: Cutler
(25.6150°N, 80.3110°W)
Time: 23:24:10
(UTC-05:00)

Vanguard 1 - Visible Passes

Search period start: 20 November 2017 00:00
Search period end: 30 November 2017 00:00
Orbit: 650 x 3834 km, 34.2° (Epoch: 17 November)

Date Brightness Start Highest point End Pass type
(mag) Time Alt. Az. Time Alt. Az. Time Alt. Az.
20 Nov 10.3 19:01:32 10° NW 19:05:28 31° N 19:05:51 30° NNE visible
21 Nov 10.3 19:22:35 10° NW 19:25:47 33° NNW 19:25:47 33° NNW visible
22 Nov 10.8 19:43:32 10° NW 19:45:44 27° NW 19:45:44 27° NW visible
23 Nov 11.5 20:04:27 10° WNW 20:05:42 19° WNW 20:05:42 19° WNW visible
24 Nov 10.2 18:05:21 10° WNW 18:09:30 30° N 18:12:59 13° ENE visible
24 Nov 12.1 20:25:24 10° WNW 20:25:43 12° WNW 20:25:43 12° WNW visible
25 Nov 9.9 18:26:30 10° NW 18:30:43 36° NNE 18:33:02 22° ENE visible
26 Nov 9.5 18:47:32 10° WNW 18:51:53 47° NNE 18:53:07 37° ENE visible
27 Nov 9.1 19:08:32 10° WNW 19:12:57 69° NNE 19:13:16 66° NE visible
28 Nov 9.4 19:29:33 10° WNW 19:33:27 67° W 19:33:27 67° W visible
29 Nov 10.6 19:50:43 10° WNW 19:53:42 36° WSW 19:53:42 36° WSW visible
